When you browse on this site, cookies collect data to enhance your experience and personalize the content and advertising you see.
Visit our Privacy Policy to learn more. By continuing to use the site, you agree to this use of cookies and data.
  • în România
  • Lista ţărilor
  • Pe 7 zile
  • Temperatura apei
  • Hartă satelitară
  • Meteo pe hartă
  • Widget-uri
  • user-avatar
    Intrare

    Meteo pe oră la Samochevka

    Astăzi, 12 Decembrie, Miercuri

    Timp Temperatura Precipitaţii Vânt Presiune Umiditate
    00:00 +1°C° 0 mm 1 m/s 743 mmHg 96%
    01:00 +1°C° 0 mm 1 m/s 743 mmHg 96%
    02:00 +1°C° 0 mm 1 m/s 743 mmHg 96%
    03:00 -2°C° 0 mm 2 m/s 743 mmHg 96%
    04:00 -2°C° 0 mm 2 m/s 743 mmHg 96%
    05:00 -2°C° 0 mm 3 m/s 743 mmHg 97%
    06:00 -2°C° 0 mm 3 m/s 743 mmHg 97%
    07:00 -2°C° 0 mm 3 m/s 743 mmHg 97%
    08:00 -3°C° 0 mm 4 m/s 743 mmHg 96%
    09:00 -3°C° 0 mm 4 m/s 743 mmHg 96%
    10:00 -3°C° 0.1 mm 4 m/s 743 mmHg 96%
    11:00 -4°C° 0.1 mm 5 m/s 742 mmHg 96%
    12:00 -4°C° 0.1 mm 5 m/s 742 mmHg 96%
    13:00 -4°C° 0.3 mm 5 m/s 742 mmHg 96%
    14:00 -4°C° 0.3 mm 5 m/s 742 mmHg 95%
    15:00 -4°C° 0.3 mm 6 m/s 742 mmHg 95%
    16:00 -4°C° 0.3 mm 6 m/s 742 mmHg 95%
    17:00 -4°C° 0.3 mm 6 m/s 742 mmHg 95%
    18:00 -4°C° 0.3 mm 6 m/s 742 mmHg 95%
    19:00 -4°C° 0.2 mm 5 m/s 742 mmHg 95%
    20:00 -4°C° 0.2 mm 5 m/s 742 mmHg 95%
    21:00 -4°C° 0.2 mm 5 m/s 742 mmHg 95%
    22:00 -4°C° 0.3 mm 5 m/s 742 mmHg 95%
    23:00 -4°C° 0.3 mm 5 m/s 742 mmHg 95%

    Mâine, 13 Decembrie, Joi

    Timp Temperatura Precipitaţii Vânt Presiune Umiditate
    00:00 -5°C° 0.3 mm 5 m/s 742 mmHg 95%
    01:00 -5°C° 0.4 mm 5 m/s 742 mmHg 95%
    02:00 -5°C° 0.4 mm 5 m/s 742 mmHg 95%
    03:00 -5°C° 0.4 mm 5 m/s 742 mmHg 95%
    04:00 -5°C° 0.3 mm 5 m/s 742 mmHg 95%
    05:00 -5°C° 0.3 mm 5 m/s 742 mmHg 95%
    06:00 -4°C° 0.3 mm 4 m/s 742 mmHg 95%
    07:00 -5°C° 0.1 mm 4 m/s 743 mmHg 96%
    08:00 -5°C° 0.1 mm 4 m/s 743 mmHg 96%
    09:00 -5°C° 0.1 mm 4 m/s 743 mmHg 96%
    10:00 -4°C° 0.1 mm 4 m/s 743 mmHg 96%
    11:00 -4°C° 0.1 mm 4 m/s 744 mmHg 96%
    12:00 -4°C° 0.1 mm 4 m/s 744 mmHg 96%
    13:00 -4°C° 0 mm 4 m/s 744 mmHg 96%
    14:00 -4°C° 0 mm 4 m/s 745 mmHg 96%
    15:00 -4°C° 0 mm 4 m/s 745 mmHg 96%
    16:00 -4°C° 0.1 mm 4 m/s 745 mmHg 96%
    17:00 -4°C° 0.1 mm 4 m/s 746 mmHg 96%
    18:00 -4°C° 0.1 mm 4 m/s 746 mmHg 96%
    19:00 -4°C° 0.1 mm 4 m/s 747 mmHg 96%
    20:00 -4°C° 0.1 mm 4 m/s 747 mmHg 96%
    21:00 -4°C° 0.1 mm 4 m/s 747 mmHg 97%
    22:00 -4°C° 0.1 mm 4 m/s 748 mmHg 97%
    23:00 -5°C° 0.1 mm 4 m/s 748 mmHg 97%

    Poimâine, 14 Decembrie, Vineri

    Timp Temperatura Precipitaţii Vânt Presiune Umiditate
    00:00 -5°C° 0.1 mm 3 m/s 748 mmHg 97%
    01:00 -5°C° 0.1 mm 3 m/s 748 mmHg 97%
    02:00 -5°C° 0.1 mm 3 m/s 749 mmHg 97%
    03:00 -5°C° 0.1 mm 3 m/s 749 mmHg 97%
    04:00 -5°C° 0.1 mm 3 m/s 749 mmHg 97%
    05:00 -5°C° 0.1 mm 3 m/s 749 mmHg 97%
    06:00 -5°C° 0.1 mm 3 m/s 749 mmHg 97%
    07:00 -5°C° 0.1 mm 3 m/s 750 mmHg 97%
    08:00 -5°C° 0.1 mm 4 m/s 750 mmHg 97%
    09:00 -5°C° 0.1 mm 4 m/s 750 mmHg 96%
    10:00 -5°C° 0.1 mm 4 m/s 750 mmHg 96%
    11:00 -5°C° 0.1 mm 3 m/s 750 mmHg 96%
    12:00 -5°C° 0.1 mm 3 m/s 751 mmHg 96%
    13:00 -5°C° 0 mm 3 m/s 751 mmHg 96%
    14:00 -5°C° 0 mm 4 m/s 751 mmHg 96%
    15:00 -5°C° 0 mm 4 m/s 751 mmHg 95%
    16:00 -5°C° 0 mm 4 m/s 751 mmHg 95%
    17:00 -5°C° 0 mm 4 m/s 751 mmHg 95%
    18:00 -7°C° 0 mm 4 m/s 751 mmHg 95%
    19:00 -7°C° 0 mm 4 m/s 752 mmHg 95%
    20:00 -7°C° 0 mm 4 m/s 752 mmHg 94%
    21:00 -7°C° 0 mm 4 m/s 752 mmHg 94%
    22:00 -7°C° 0 mm 4 m/s 752 mmHg 94%
    23:00 -8°C° 0 mm 4 m/s 752 mmHg 95%

    15 Decembrie, Sâmbătă

    Timp Temperatura Precipitaţii Vânt Presiune Umiditate
    00:00 -8°C° 0 mm 4 m/s 752 mmHg 95%
    01:00 -7°C° 0 mm 4 m/s 752 mmHg 95%
    02:00 -7°C° 0 mm 4 m/s 753 mmHg 95%
    03:00 -7°C° 0 mm 4 m/s 753 mmHg 94%
    04:00 -7°C° 0 mm 4 m/s 753 mmHg 94%
    05:00 -7°C° 0 mm 4 m/s 753 mmHg 94%
    06:00 -5°C° 0 mm 4 m/s 753 mmHg 93%
    07:00 -5°C° 0 mm 4 m/s 753 mmHg 94%
    08:00 -5°C° 0 mm 4 m/s 754 mmHg 94%
    09:00 -5°C° 0 mm 4 m/s 754 mmHg 94%
    10:00 -5°C° 0 mm 4 m/s 754 mmHg 94%
    11:00 -5°C° 0 mm 4 m/s 755 mmHg 93%
    12:00 -5°C° 0 mm 4 m/s 755 mmHg 93%
    13:00 -5°C° 0 mm 4 m/s 755 mmHg 93%
    14:00 -6°C° 0 mm 5 m/s 755 mmHg 92%
    15:00 -7°C° 0 mm 5 m/s 756 mmHg 92%
    16:00 -8°C° 0 mm 4 m/s 756 mmHg 93%
    17:00 -9°C° 0 mm 4 m/s 756 mmHg 93%
    18:00 -10°C° 0 mm 4 m/s 757 mmHg 94%
    19:00 -12°C° 0 mm 4 m/s 757 mmHg 95%
    20:00 -13°C° 0 mm 3 m/s 757 mmHg 95%
    21:00 -15°C° 0 mm 3 m/s 757 mmHg 96%
    22:00 -15°C° 0 mm 3 m/s 758 mmHg 96%
    23:00 -16°C° 0 mm 3 m/s 758 mmHg 95%

    16 Decembrie, Duminică

    Timp Temperatura Precipitaţii Vânt Presiune Umiditate
    00:00 -17°C° 0 mm 3 m/s 758 mmHg 95%
    01:00 -17°C° 0 mm 3 m/s 759 mmHg 94%
    02:00 -18°C° 0 mm 3 m/s 759 mmHg 94%
    03:00 -18°C° 0 mm 3 m/s 759 mmHg 94%
    04:00 -19°C° 0 mm 3 m/s 759 mmHg 94%
    05:00 -18°C° 0 mm 2 m/s 760 mmHg 93%
    06:00 -18°C° 0 mm 2 m/s 760 mmHg 93%
    07:00 -18°C° 0 mm 2 m/s 760 mmHg 93%
    08:00 -18°C° 0 mm 2 m/s 760 mmHg 93%
    09:00 -18°C° 0 mm 2 m/s 760 mmHg 93%
    10:00 -17°C° 0 mm 2 m/s 760 mmHg 93%
    11:00 -17°C° 0 mm 2 m/s 760 mmHg 92%
    12:00 -16°C° 0 mm 2 m/s 761 mmHg 92%
    13:00 -16°C° 0 mm 2 m/s 760 mmHg 91%
    14:00 -16°C° 0 mm 2 m/s 760 mmHg 90%
    15:00 -16°C° 0 mm 2 m/s 760 mmHg 89%
    16:00 -16°C° 0 mm 2 m/s 760 mmHg 89%
    17:00 -17°C° 0 mm 2 m/s 760 mmHg 88%
    18:00 -17°C° 0 mm 2 m/s 760 mmHg 88%
    19:00 -18°C° 0 mm 2 m/s 760 mmHg 87%
    20:00 -18°C° 0 mm 2 m/s 760 mmHg 87%
    21:00 -18°C° 0 mm 2 m/s 760 mmHg 87%
    22:00 -16°C° 0 mm 1 m/s 760 mmHg 87%
    23:00 -16°C° 0 mm 1 m/s 760 mmHg 87%

    17 Decembrie, Luni

    Timp Temperatura Precipitaţii Vânt Presiune Umiditate
    00:00 -16°C° 0 mm 1 m/s 760 mmHg 87%
    01:00 -16°C° 0 mm 1 m/s 760 mmHg 88%
    02:00 -16°C° 0 mm 1 m/s 760 mmHg 88%
    03:00 -16°C° 0 mm 1 m/s 760 mmHg 88%
    04:00 -16°C° 0 mm 1 m/s 760 mmHg 90%
    05:00 -16°C° 0 mm 1 m/s 759 mmHg 91%
    06:00 -15°C° 0 mm 1 m/s 759 mmHg 92%
    07:00 -15°C° 0 mm 1 m/s 759 mmHg 93%
    08:00 -14°C° 0 mm 1 m/s 759 mmHg 94%
    09:00 -13°C° 0 mm 1 m/s 759 mmHg 95%
    10:00 -14°C° 0 mm 2 m/s 759 mmHg 96%
    11:00 -13°C° 0 mm 2 m/s 759 mmHg 96%
    12:00 -12°C° 0 mm 2 m/s 759 mmHg 96%
    13:00 -12°C° 0 mm 2 m/s 758 mmHg 96%
    14:00 -12°C° 0 mm 2 m/s 758 mmHg 96%
    15:00 -10°C° 0 mm 1 m/s 758 mmHg 96%
    16:00 -12°C° 0 mm 2 m/s 758 mmHg 96%
    17:00 -12°C° 0 mm 2 m/s 758 mmHg 96%
    18:00 -12°C° 0 mm 2 m/s 758 mmHg 97%
    19:00 -12°C° 0 mm 2 m/s 758 mmHg 97%
    20:00 -12°C° 0 mm 2 m/s 758 mmHg 97%
    21:00 -12°C° 0 mm 2 m/s 758 mmHg 97%
    22:00 -12°C° 0 mm 2 m/s 758 mmHg 97%
    23:00 -12°C° 0 mm 2 m/s 758 mmHg 97%
    Arată mai mult